TimeCDT,TemperatureF,Dew PointF,Humidity,Sea Level PressureIn,VisibilityMPH,Wind Direction,Wind SpeedMPH,Gust SpeedMPH,PrecipitationIn,Events,Conditions,WindDirDegrees,DateUTC
12:15 AM,21.2,19.4,93,30.28,8.0,Calm,Calm,-,N/A,,Clear,0,2014-03-09 06:15:00
12:35 AM,21.2,19.4,93,30.27,8.0,Calm,Calm,-,N/A,,Clear,0,2014-03-09 06:35:00
12:55 AM,21.2,19.4,93,30.27,7.0,Calm,Calm,-,N/A,,Clear,0,2014-03-09 06:55:00
1:15 AM,21.2,19.4,93,30.27,7.0,Calm,Calm,-,N/A,,Clear,0,2014-03-09 07:15:00
1:35 AM,21.2,19.4,93,30.27,6.0,Calm,Calm,-,N/A,,Clear,0,2014-03-09 07:35:00
1:55 AM,21.2,19.4,93,30.27,7.0,SSW,4.6,-,N/A,,Clear,200,2014-03-09 07:55:00
3:15 AM,21.2,19.4,93,30.25,10.0,South,5.8,-,N/A,,Clear,190,2014-03-09 08:15:00
3:35 AM,21.2,19.4,93,30.24,10.0,SSW,4.6,-,N/A,,Clear,200,2014-03-09 08:35:00
3:55 AM,21.2,19.4,93,30.22,10.0,South,6.9,-,N/A,,Clear,180,2014-03-09 08:55:00
4:15 AM,23.0,19.4,86,30.22,9.0,Calm,Calm,-,N/A,,Clear,0,2014-03-09 09:15:00
4:35 AM,23.0,19.4,86,30.21,10.0,South,4.6,-,N/A,,Clear,190,2014-03-09 09:35:00
4:55 AM,23.0,19.4,86,30.22,10.0,South,4.6,-,N/A,,Clear,190,2014-03-09 09:55:00
5:15 AM,23.0,19.4,86,30.21,10.0,South,5.8,-,N/A,,Clear,190,2014-03-09 10:15:00
5:35 AM,23.0,19.4,86,30.21,10.0,South,4.6,-,N/A,,Clear,190,2014-03-09 10:35:00
5:55 AM,23.0,21.2,93,30.20,10.0,South,5.8,-,N/A,,Clear,170,2014-03-09 10:55:00
6:15 AM,23.0,19.4,86,30.20,10.0,South,5.8,-,N/A,,Clear,180,2014-03-09 11:15:00
6:35 AM,23.0,21.2,93,30.19,10.0,South,6.9,-,N/A,,Clear,170,2014-03-09 11:35:00
6:55 AM,24.8,21.2,86,30.18,10.0,South,6.9,-,N/A,,Clear,170,2014-03-09 11:55:00
7:15 AM,24.8,21.2,86,30.17,10.0,South,8.1,-,N/A,,Clear,190,2014-03-09 12:15:00
7:35 AM,24.8,21.2,86,30.17,10.0,South,8.1,-,N/A,,Clear,180,2014-03-09 12:35:00
7:55 AM,24.8,21.2,86,30.16,10.0,South,9.2,-,N/A,,Clear,170,2014-03-09 12:55:00
8:15 AM,26.6,23.0,86,30.17,10.0,South,8.1,-,N/A,,Clear,190,2014-03-09 13:15:00
8:35 AM,28.4,23.0,80,30.15,10.0,South,9.2,-,N/A,,Clear,180,2014-03-09 13:35:00
8:55 AM,28.4,23.0,80,30.14,10.0,South,11.5,-,N/A,,Clear,190,2014-03-09 13:55:00
9:15 AM,30.2,24.8,80,30.13,10.0,South,12.7,-,N/A,,Clear,190,2014-03-09 14:15:00
9:35 AM,32.0,24.8,75,30.12,10.0,SSW,12.7,19.6,N/A,,Clear,210,2014-03-09 14:35:00
9:55 AM,33.8,24.8,70,30.11,10.0,SSW,13.8,20.7,N/A,,Clear,210,2014-03-09 14:55:00
10:15 AM,35.6,24.8,65,30.08,10.0,SSW,15.0,-,N/A,,Clear,200,2014-03-09 15:15:00
10:35 AM,37.4,24.8,60,30.07,10.0,SSW,18.4,-,N/A,,Clear,200,2014-03-09 15:35:00
10:55 AM,39.2,24.8,56,30.07,10.0,SSW,13.8,26.5,N/A,,Clear,210,2014-03-09 15:55:00
11:15 AM,41.0,26.6,57,30.05,10.0,SSW,18.4,24.2,N/A,,Clear,200,2014-03-09 16:15:00
11:35 AM,42.8,26.6,53,30.04,10.0,SSW,16.1,25.3,N/A,,Clear,210,2014-03-09 16:35:00
11:55 AM,46.4,28.4,50,30.02,10.0,SSW,12.7,19.6,N/A,,Clear,200,2014-03-09 16:55:00
12:15 PM,46.4,28.4,50,30.01,10.0,SSW,17.3,23.0,N/A,,Clear,200,2014-03-09 17:15:00
12:35 PM,46.4,30.2,53,30.00,10.0,SSW,17.3,-,N/A,,Clear,200,2014-03-09 17:35:00
12:55 PM,48.2,32.0,54,29.98,10.0,SSW,15.0,24.2,N/A,,Clear,200,2014-03-09 17:55:00
1:15 PM,50.0,32.0,50,29.97,10.0,SSW,17.3,25.3,N/A,,Clear,210,2014-03-09 18:15:00
1:35 PM,51.8,32.0,47,29.95,10.0,SSW,19.6,28.8,N/A,,Clear,210,2014-03-09 18:35:00
1:55 PM,53.6,32.0,44,29.94,10.0,SW,20.7,-,N/A,,Clear,220,2014-03-09 18:55:00
2:15 PM,53.6,32.0,44,29.92,10.0,SSW,18.4,27.6,N/A,,Clear,210,2014-03-09 19:15:00
2:35 PM,53.6,32.0,44,29.91,10.0,SSW,20.7,29.9,N/A,,Clear,210,2014-03-09 19:35:00
2:55 PM,53.6,32.0,44,29.90,10.0,SSW,23.0,-,N/A,,Clear,210,2014-03-09 19:55:00
3:15 PM,53.6,33.8,47,29.89,10.0,SSW,18.4,25.3,N/A,,Clear,210,2014-03-09 20:15:00
3:35 PM,55.4,33.8,44,29.87,10.0,SSW,20.7,-,N/A,,Clear,210,2014-03-09 20:35:00
3:55 PM,55.4,35.6,47,29.86,10.0,SSW,18.4,25.3,N/A,,Clear,210,2014-03-09 20:55:00
4:15 PM,57.2,33.8,41,29.85,10.0,SSW,24.2,31.1,N/A,,Clear,210,2014-03-09 21:15:00
4:35 PM,57.2,35.6,44,29.84,10.0,SW,24.2,31.1,N/A,,Clear,220,2014-03-09 21:35:00
4:55 PM,57.2,35.6,44,29.85,10.0,SW,23.0,29.9,N/A,,Clear,220,2014-03-09 21:55:00
5:15 PM,57.2,35.6,44,29.84,10.0,SW,18.4,29.9,N/A,,Clear,220,2014-03-09 22:15:00
5:35 PM,57.2,37.4,48,29.83,10.0,SW,17.3,31.1,N/A,,Clear,220,2014-03-09 22:35:00
5:55 PM,55.4,35.6,47,29.83,10.0,SW,20.7,28.8,N/A,,Clear,220,2014-03-09 22:55:00
6:15 PM,55.4,37.4,51,29.82,10.0,SSW,16.1,25.3,N/A,,Clear,210,2014-03-09 23:15:00
6:35 PM,55.4,37.4,51,29.81,10.0,SSW,15.0,24.2,N/A,,Clear,210,2014-03-09 23:35:00
6:55 PM,53.6,35.6,51,29.81,10.0,SSW,16.1,23.0,N/A,,Clear,210,2014-03-09 23:55:00
7:15 PM,53.6,35.6,51,29.81,10.0,SSW,18.4,24.2,N/A,,Clear,210,2014-03-10 00:15:00
7:35 PM,53.6,35.6,51,29.81,10.0,SSW,16.1,-,N/A,,Clear,210,2014-03-10 00:35:00
7:55 PM,53.6,35.6,51,29.81,10.0,SSW,15.0,-,N/A,,Clear,210,2014-03-10 00:55:00
8:15 PM,53.6,35.6,51,29.80,10.0,SSW,12.7,-,N/A,,Clear,210,2014-03-10 01:15:00
8:35 PM,53.6,35.6,51,29.80,10.0,SSW,12.7,19.6,N/A,,Clear,210,2014-03-10 01:35:00
8:55 PM,51.8,35.6,54,29.80,10.0,SSW,12.7,18.4,N/A,,Clear,210,2014-03-10 01:55:00
9:15 PM,51.8,35.6,54,29.80,10.0,SW,11.5,-,N/A,,Clear,220,2014-03-10 02:15:00
9:35 PM,51.8,33.8,50,29.80,10.0,SW,10.4,-,N/A,,Clear,220,2014-03-10 02:35:00
9:55 PM,51.8,33.8,50,29.80,10.0,SW,9.2,17.3,N/A,,Clear,220,2014-03-10 02:55:00
10:15 PM,51.8,33.8,50,29.81,10.0,SW,9.2,-,N/A,,Clear,230,2014-03-10 03:15:00
10:35 PM,51.8,33.8,50,29.81,10.0,SW,9.2,15.0,N/A,,Clear,230,2014-03-10 03:35:00
10:55 PM,51.8,33.8,50,29.80,10.0,SW,9.2,-,N/A,,Clear,230,2014-03-10 03:55:00
11:10 PM,51.8,33.8,50,29.80,10.0,SW,11.5,-,N/A,,Clear,230,2014-03-10 04:10:00
11:35 PM,51.8,33.8,50,29.80,10.0,SW,11.5,17.3,N/A,,Clear,230,2014-03-10 04:35:00
11:55 PM,51.8,33.8,50,29.80,10.0,SW,13.8,19.6,N/A,,Clear,230,2014-03-10 04:55:00
12:15 AM,51.8,33.8,50,29.79,10.0,SW,13.8,20.7,N/A,,Clear,230,2014-03-10 05:15:00
12:35 AM,51.8,33.8,50,29.79,10.0,SW,15.0,-,N/A,,Clear,230,2014-03-10 05:35:00
12:55 AM,50.0,33.8,54,29.79,10.0,WSW,11.5,-,N/A,,Clear,240,2014-03-10 05:55:00